Time,TemperatureF,DewpointF,PressureIn,WindDirection,WindDirectionDegrees,WindSpeedMPH,WindSpeedGustMPH,Humidity,HourlyPrecipIn,Conditions,Clouds,dailyrainin,SoftwareType,DateUTC
2013-06-29 00:11:00,65.0,65.0,-100.00,West,275,1.0,2.0,99,0.04,,,-99.99,,2013-06-29 04:11:00,
2013-06-29 01:01:00,65.0,65.0,-100.00,West,270,1.0,2.0,99,0.00,,,-99.99,,2013-06-29 05:01:00,
2013-06-29 01:11:00,65.0,65.0,-100.00,West,270,0.0,1.0,99,0.00,,,-99.99,,2013-06-29 05:11:00,
2013-06-29 02:12:00,65.0,65.0,-100.00,West,265,2.0,5.0,99,0.54,,,-99.99,,2013-06-29 06:12:00,
2013-06-29 03:12:00,65.0,65.0,-100.00,WNW,300,1.0,2.0,99,0.00,,,-99.99,,2013-06-29 07:12:00,
2013-06-29 03:22:00,66.0,66.0,-100.00,WNW,300,1.0,2.0,99,0.00,,,-99.99,,2013-06-29 07:22:00,
2013-06-29 03:33:00,66.0,66.0,-100.00,NNW,330,0.0,2.0,99,0.00,,,-99.99,,2013-06-29 07:33:00,
2013-06-29 04:01:00,66.0,66.0,-100.00,WNW,300,0.0,2.0,99,0.00,,,-99.99,,2013-06-29 08:01:00,
2013-06-29 04:12:00,66.0,66.0,-100.00,NW,315,0.0,1.0,99,0.00,,,-99.99,,2013-06-29 08:12:00,
2013-06-29 04:22:00,66.0,66.0,-100.00,NNE,15,0.0,3.0,99,0.00,,,-99.99,,2013-06-29 08:22:00,
2013-06-29 04:33:00,66.0,66.0,-100.00,SE,135,0.0,1.0,99,0.00,,,-99.99,,2013-06-29 08:33:00,
2013-06-29 05:12:00,66.0,66.0,-100.00,West,280,0.0,1.0,99,0.00,,,-99.99,,2013-06-29 09:12:00,
2013-06-29 06:01:00,66.0,66.0,-100.00,WSW,240,0.0,1.0,99,0.03,,,-99.99,,2013-06-29 10:01:00,
2013-06-29 06:22:00,66.0,66.0,-100.00,North,10,0.0,1.0,99,0.00,,,-99.99,,2013-06-29 10:22:00,
2013-06-29 06:33:00,66.0,66.0,-100.00,West,270,1.0,6.0,99,0.00,,,-99.99,,2013-06-29 10:33:00,
2013-06-29 07:02:00,66.0,66.0,-100.00,NNW,335,1.0,1.0,99,0.00,,,-99.99,,2013-06-29 11:02:00,
2013-06-29 08:12:00,68.0,68.0,-100.00,East,90,1.0,2.0,99,0.00,,,-99.99,,2013-06-29 12:12:00,
2013-06-29 09:02:00,70.0,-99.9,-100.00,West,275,1.0,2.0,-999,0.00,,,-99.99,,2013-06-29 13:02:00,
2013-06-29 09:11:00,70.0,70.0,-100.00,South,185,1.0,3.0,99,0.00,,,-99.99,,2013-06-29 13:11:00,
2013-06-29 10:12:00,73.0,73.0,-100.00,SE,135,2.0,4.0,99,0.00,,,-99.99,,2013-06-29 14:12:00,
2013-06-29 10:23:00,73.0,73.0,-100.00,SSE,150,2.0,6.0,99,0.00,,,-99.99,,2013-06-29 14:23:00,
2013-06-29 10:34:00,74.0,74.0,-100.00,North,-999,-999.0,-999.0,99,0.00,,,-99.99,,2013-06-29 14:34:00,
2013-06-29 10:44:00,75.0,74.0,-100.00,East,85,2.0,7.0,98,0.00,,,-99.99,,2013-06-29 14:44:00,
2013-06-29 11:22:00,76.0,72.0,-100.00,East,85,2.0,7.0,89,0.00,,,-99.99,,2013-06-29 15:22:00,
2013-06-29 12:02:00,76.0,70.0,-100.00,SE,145,3.0,12.0,81,0.00,,,-99.99,,2013-06-29 16:02:00,
2013-06-29 12:12:00,77.0,71.0,-100.00,SE,145,4.0,9.0,81,0.00,,,-99.99,,2013-06-29 16:12:00,
2013-06-29 13:12:00,80.0,71.0,-100.00,SE,145,4.0,13.0,74,0.00,,,-99.99,,2013-06-29 17:12:00,
2013-06-29 14:12:00,82.0,69.0,-100.00,ENE,65,4.0,11.0,65,0.00,,,-99.99,,2013-06-29 18:12:00,
2013-06-29 14:34:00,83.0,68.0,-100.00,South,185,3.0,9.0,60,0.00,,,-99.99,,2013-06-29 18:34:00,
2013-06-29 15:01:00,81.0,69.0,-100.00,NE,45,1.0,10.0,68,0.00,,,-99.99,,2013-06-29 19:01:00,
2013-06-29 15:12:00,83.0,69.0,-100.00,SE,140,4.0,12.0,63,0.00,,,-99.99,,2013-06-29 19:12:00,
2013-06-29 15:22:00,83.0,69.0,-100.00,East,90,2.0,10.0,64,0.00,,,-99.99,,2013-06-29 19:22:00,
2013-06-29 16:12:00,83.0,68.0,-100.00,East,90,2.0,12.0,59,0.00,,,-99.99,,2013-06-29 20:12:00,
2013-06-29 17:22:00,83.0,68.0,-100.00,East,80,3.0,9.0,61,0.00,,,-99.99,,2013-06-29 21:22:00,
2013-06-29 18:11:00,81.0,68.0,-100.00,ENE,70,2.0,9.0,65,0.00,,,-99.99,,2013-06-29 22:11:00,
2013-06-29 18:22:00,81.0,69.0,-100.00,SE,145,2.0,9.0,66,0.00,,,-99.99,,2013-06-29 22:22:00,
2013-06-29 19:12:00,79.0,68.0,-100.00,East,85,2.0,6.0,68,0.00,,,-99.99,,2013-06-29 23:12:00,
2013-06-29 20:12:00,76.0,69.0,-100.00,ENE,70,1.0,4.0,79,0.00,,,-99.99,,2013-06-30 00:12:00,
2013-06-29 21:22:00,73.0,69.0,-100.00,North,10,1.0,1.0,86,0.00,,,-99.99,,2013-06-30 01:22:00,
2013-06-29 22:02:00,72.0,69.0,-100.00,ENE,65,1.0,1.0,90,0.00,,,-99.99,,2013-06-30 02:02:00,
2013-06-29 22:11:00,72.0,69.0,-100.00,NE,55,1.0,1.0,91,0.00,,,-99.99,,2013-06-30 02:11:00,
2013-06-29 22:43:00,71.0,69.0,-100.00,East,80,1.0,1.0,92,0.00,,,-99.99,,2013-06-30 02:43:00,
2013-06-29 23:02:00,71.0,69.0,-100.00,NE,45,1.0,1.0,94,0.00,,,-99.99,,2013-06-30 03:02:00,
2013-06-29 23:12:00,70.0,69.0,-100.00,ENE,60,1.0,1.0,94,0.00,,,-99.99,,2013-06-30 03:12:00,